Location: Jetmore Motorplex
(37.9889°N, 99.8876°W)
Time: 08:47:19
(UTC+00:00)

Cosmos 1805 Rocket - Pass Details

Date: 17 February 2020
Orbit: 606 x 629 km, 82.5° (Epoch: 31 March)

Event Time Altitude Azimuth Distance (km) Brightness Sun altitude
Rises 01:07:59 0° 181° (S) 2,889 7.1 -10.3°
Reaches altitude 10° 01:10:12 10° 179° (S) 1,983 6.2 -10.7°
Maximum altitude 01:14:34 73° 96° (E) 652 3.5 -11.6°
Drops below altitude 10° 01:18:57 10° 11° (NNE) 1,984 6.0 -12.4°
Sets 01:21:11 0° 10° (N) 2,889 6.8 -12.9°
